Location: Lansingburgh
(42.7845°N, 73.6696°W)
Time: 05:46:19
(UTC+00:00)

SL-8 R/B - Pass Details

Date: 24 January 2020
Orbit: 656 x 668 km, 48.4° (Epoch: 17 February)

Event Time Altitude Azimuth Distance (km) Brightness Sun altitude
Rises 22:42:31 0° 242° (WSW) 2,993 9.2 -8.6°
Reaches altitude 10° 22:44:52 10° 242° (WSW) 2,081 7.8 -9.0°
Maximum altitude 22:49:41 89° 151° (SSE) 668 3.7 -9.9°
Enters shadow 22:53:51 14° 64° (ENE) 1,830 5.3 -10.6°
